Location: Dugenta
(41.1333°N, 14.4500°E)
Time: 20:01:08
(UTC+00:00)

Cosmos 1610 Rocket - Pass Details

Date: 03 March 2021
Orbit: 953 x 1002 km, 82.9° (Epoch: 18 April)

Event Time Altitude Azimuth Distance (km) Brightness Sun altitude
Rises 17:35:51 0° 178° (S) 3,628 7.5 -8.4°
Reaches altitude 10° 17:38:20 10° 176° (S) 2,692 6.8 -8.9°
Maximum altitude 17:44:27 70° 94° (E) 1,032 4.5 -10.0°
Drops below altitude 10° 17:50:41 10° 12° (NNE) 2,742 6.7 -11.2°
Sets 17:53:14 0° 10° (N) 3,702 7.4 -11.7°
